GalileoSat-22

operational
NORAD ID: 43058 Int'l Des: 2017-079 Owner: GSAEU Country: I-EU Constellation: Galileo
MEOCIRCULAR

About GalileoSat-22

Description loading...

Live Position

Loading 3D Globe...

Upcoming Passes

Altitude History

Altitude vs Time

uPlot chart will show altitude changes over time

Two-Line Element Set

1 43058U 17079D 25297.35497028 -.00000001 00000-0 00000+0 0 9998
2 43058 55.1478 227.9922 0004005 288.7012 71.2640 1.70473902 48995
Epoch: Oct 24, 2025 • Age: 29 hours

Current Status

Altitude 23220.8 km
Velocity 3.67 km/s
Sub-Earth Point 11.33°N, 3.52°E
Launch Date Dec 12, 2017
Age 7.8 years
Type navigation

Technical Details

Classification Payload
Mass 715.00 kg
Dry Mass 700.00 kg
Total Mass 715.00 kg
Length 2.70 m
Diameter 1.60 m
Span 14.70 m
Shape Box+2 pan
Manufacturer OHB
Bus Type GalileoSat
Phase Status In Orbit
Owner/State GSAEU/I-EU

Large Constellations

Loading constellations...